Location: Cedarville Mobile Home Park
(38.5815°N, 75.0860°W)
Time: 02:46:53
(UTC+00:00)

ACS3 Solar Sail - Pass Details

Date: 18 October 2024
Orbit: 961 x 1022 km, 97.5° (Epoch: 03 November)

Event Time Altitude Azimuth Distance (km) Brightness Sun altitude
Exits shadow 02:27:11 16° 284° (WNW) 2,395 4.2 -47.7°
Drops below altitude 10° 02:29:59 10° 310° (NW) 2,829 4.7 -48.2°
Sets 02:33:34 0° 330° (NNW) 3,784 5.5 -48.8°
